Track STARLINK-4140 now! 10-day predictions STARLINK-4140 is classified as:
1 53259U 22086T 22227.91667824 .00027141 00000-0 19741-3 0 9990 2 53259 53.2191 292.5691 0002302 18.4056 69.4641 15.73171132 1307